Weather in Dolotskoe

Russia / Vologda Oblast     58°57′59″N   35°58′28″E
temp.,
°C
wind,
m/s
gust,
m/s
humid.,
%
clouds,
%
prec.,
mm/h
press.,
hPa
HPBL,
m
27 september, mon
mon2700:00+8n389777 0.0 1021289
03:00+7n3109831 0.0 1023368
06:00+5n310979 0.0 1025296
09:00+8n3109040 0.0 1026403
12:00+11nne477774 0.0 1027927
15:00+11nne4878100 0.3 1027940
18:00+10nne388599 0.2 1028566
21:00+8ne3989100 0.3 1029504
28 september, tue
tue2800:00+8ne3893100 0.0 1030469
03:00+8ne2695100 0.1 1031348
06:00+7ne269675 0.0 1032261
09:00+8e357837 0.1 1033742
12:00+10e246040 0.0 1034891
15:00+11ene225499 0.0 1034978
18:00+8ene117370 0.0 103510
21:00+6ne0077100 0.0 103510
29 september, wed
wed2900:00+5nnw0181100 0.0 103610
03:00+5nw1186100 0.0 103612
06:00+4nw229693 0.0 103722
09:00+7nnw128347 0.0 1037188
12:00+11nnw126519 0.0 1036644
15:00+13nnw126049 0.0 1035902
18:00+9nw117925 0.0 103510
21:00+9nw228182 0.0 103531
30 september, thu
thu3000:00+7nw2289100 0.0 103630
03:00+7nw11909 0.0 103622
06:00+6nnw119584 0.0 103610
09:00+9n11825 0.0 1036159
12:00+13nw00665 0.0 1035577
15:00+14wsw11625 0.0 1034823
18:00+10ssw11825 0.0 103410
21:00+8ssw11895 0.0 103410
1 october, fri
fri100:00+7ssw11944 0.0 103413
03:00+6sw22955 0.0 103431
06:00+5sw22950 0.0 103443
09:00+8ssw24801 0.0 1034215
12:00+12sw34645 0.0 1033786
15:00+13ssw34595 0.0 10321092
18:00+9ssw22795 0.0 103126
21:00+7ssw25885 0.0 103199